Location: Seagrape Drive
(25.8948°N, 81.3265°W)
Time: 15:38:30
(UTC-05:00)

ISS - Visible Passes

Search period start: 23 February 2018 00:00
Search period end: 05 March 2018 00:00
Orbit: 402 x 407 km, 51.6° (Epoch: 24 February)

Date Brightness Start Highest point End Pass type
(mag) Time Alt. Az. Time Alt. Az. Time Alt. Az.
23 Feb -1.1 05:55:03 10° S 05:57:30 20° SE 05:59:58 10° ENE visible
25 Feb -3.6 05:46:55 16° SSW 05:49:25 70° SE 05:52:39 10° NE visible
26 Feb -1.5 04:57:58 24° ESE 04:57:58 24° ESE 05:00:06 10° ENE visible
27 Feb -3.0 05:41:26 32° NW 05:41:26 32° NW 05:44:24 10° NNE visible
28 Feb -0.9 04:51:56 13° NE 04:51:56 13° NE 04:52:25 10° NE visible
01 Mar -1.2 05:34:55 10° NNW 05:34:55 10° NNW 05:35:03 10° NNW visible
